User: anonymous
Location: Indian Springs
(36.5700°N, 115.6700°W)
Time: 02:57:52
(UTC-07:00)
Language:

Cosmos 2278 Rocket - Orbit

View from above orbital plane
View from above orbital plane
View from above satellite
View from above satellite

Ground track
Ground track

The orbit data is extracted from the following two-line orbital elements,

1 23088U 94023B   14260.41985916  .00000303  00000-0  18228-3 0   165
2 23088 070.9998 228.7393 0003911 216.6395 293.4658 14.14572601 53595
Epoch (UTC): 17 September 2014 10:04:35
Eccentricity: 0.0003911
inclination: 70.9998°
perigee height: 841 km
apogee height: 846 km
right ascension of ascending node: 228.7393°
argument of perigee: 216.6395°
revolutions per day: 14.14572601
mean anomaly at epoch: 293.4658°
orbit number at epoch: 5359

The dashed part of the orbit path shows where the satellite is in the earth's shadow,  

DLR